Flight Track Log - Related Links

Times and Time Zones

All times are in EDT time to prevent confusion due to time zone crossing. See the SRY328 flight status page for this flight to view local times or setup timezone preferences in your user account.

Time Position Orientation Groundspeed Altitude Reporting Facility
EDT Latitude Longitude Course Direction KTS MPH feet Rate Location/Type
10:28AM 41.5106 -81.7006 303° West 162 186 1,500  Level Cleveland Center
10:29AM 41.5350 -81.7511 348° North 212 244 2,100 2,087 Climbing Cleveland Center
10:30AM 41.5953 -81.7686 19° North 242 278 5,500 4,000 Climbing Cleveland Center
10:31AM 41.6519 -81.7419 54° Northeast 220 253 10,100 4,250 Climbing Cleveland Center
10:32AM 41.6942 -81.6647 51° Northeast 225 259 14,000 3,500 Climbing Cleveland Center
10:33AM 41.7408 -81.5878 53° Northeast 262 302 17,100 2,850 Climbing Cleveland Center
10:34AM 41.7831 -81.5131 54° Northeast 275 316 19,700 2,550 Climbing Cleveland Center
10:35AM 41.8319 -81.4219 82° East 284 327 22,200 2,400 Climbing Cleveland Center
10:36AM 41.8453 -81.2967 92° East 313 360 24,500 2,050 Climbing Cleveland Center
10:37AM 41.8417 -81.1572 92° East 346 398 26,300 1,250 Climbing Cleveland Center
10:38AM 41.8383 -81.0122 92° East 385 443 27,000 350 Climbing Cleveland Center
10:39AM 41.8347 -80.8394 92° East 406 467 27,000  Level Cleveland Center
10:40AM 41.8306 -80.6889 93° East 419 482 27,000  Level Cleveland Center
10:41AM 41.8244 -80.5331 92° East 414 476 27,000  Level Cleveland Center
10:42AM 41.8203 -80.3825 91° East 408 470 27,000  Level Cleveland Center
10:43AM 41.8178 -80.2294 92° East 408 470 27,000  Level Cleveland Center
10:44AM 41.8131 -80.0761 93° East 403 464 27,000  Level Cleveland Center
10:45AM 41.8081 -79.9258 93° East 403 464 27,000  Level Cleveland Center
10:46AM 41.8008 -79.7697 92° East 403 464 27,000  Level Cleveland Center
10:47AM 41.7975 -79.6194 93° East 403 464 27,000  Level Cleveland Center
10:48AM 41.7919 -79.4664 93° East 403 464 27,000  Level Cleveland Center
10:49AM 41.7861 -79.3161 93° East 403 464 27,000  Level Cleveland Center
10:50AM 41.7806 -79.1769 92° East 403 464 27,000  Level Cleveland Center
10:51AM 41.7764 -79.0294 95° East 403 464 27,000  Level Cleveland Center
10:52AM 41.7658 -78.8656 93° East 403 464 27,000  Level Cleveland Center
10:53AM 41.7594 -78.7181 93° East 403 464 27,000 -433 Level Cleveland Center
10:55AM 41.7458 -78.4181 94° East 403 464 25,700 -1,100 Descending Cleveland Center
10:56AM 41.7386 -78.2678 94° East 403 464 23,700 -1,350 Descending Cleveland Center
10:57AM 41.7314 -78.1206 94° East 403 464 23,000 -350 Descending Cleveland Center
10:58AM 41.7239 -77.9681 94° East 403 464 23,000  Level Cleveland Center
10:59AM 41.7203 -77.8939 94° East 403 464 23,000  Level New York Center
11:00AM 41.7128 -77.7375 95° East 412 474 23,000  Level New York Center
11:01AM 41.7019 -77.5639 94° East 425 489 23,000  Level New York Center
11:02AM 41.6936 -77.4186 97° East 425 489 23,000  Level New York Center
11:03AM 41.6794 -77.2589 98° East 430 495 23,000 -100 Level New York Center
11:04AM 41.6631 -77.1017 99° East 425 489 22,800 -1,190 Descending New York Center
11:05AM 41.6442 -76.9444 99° East 425 489 20,600 -2,186 Descending New York Center
11:06AM 41.6267 -76.7986 98° East 410 472 18,500 -2,136 Descending New York Center
11:07AM 41.6114 -76.6472 99° East 384 442 16,400 -1,918 Descending New York Center
11:08AM 41.5950 -76.5156 98° East 369 425 14,600 -1,770 Descending New York Center
11:09AM 41.5836 -76.4008 98° East 353 406 12,800 -1,780 Descending New York Center
11:10AM 41.5706 -76.2833 100° East 342 394 11,100 -2,136 Descending New York Center
11:11AM 41.5533 -76.1569 119° Southeast 323 372 8,600 -2,231 Descending New York Center
11:12AM 41.5139 -76.0625 120° Southeast 297 342 6,600 -1,983 Descending New York Center
11:13AM 41.4836 -75.9936 123° Southeast 281 323 4,600 1,180 Descending New York Center
11:14AM 41.4358 -75.8958 123° Southeast 281 323 9,000 2,218 Climbing New York Center
11:15AM 41.3936 -75.8097 124° Southeast 281 323 9,000  Level New York Center
11:16AM 41.3494 -75.7233 124° Southeast 281 323 9,000  Level New York Center
11:17AM 41.3147 -75.6544 360° North 281 323 9,000  Level New York Center
11:18AM 41.3147 -75.6544 360° North 281 323 9,000  Level New York Center
11:19AM 41.3147 -75.6544 360° North 281 323 9,000  Level New York Center
11:20AM 41.3147 -75.6544 360° North 281 323 9,000  Level New York Center

Login

Don't have an account? Register now (free) for customized features, flight alerts, and more!